Time,TemperatureF,DewpointF,PressureIn,WindDirection,WindDirectionDegrees,WindSpeedMPH,WindSpeedGustMPH,Humidity,HourlyPrecipIn,Conditions,Clouds,dailyrainin,SoftwareType,DateUTC
2013-04-19 00:01:00,51.1,39.3,30.39,NE,38,3.1,3.1,64,0.00,,,0.00,VWS V13.01,2013-04-19 07:01:00,
2013-04-19 00:06:00,51.1,39.3,30.42,NE,38,3.1,3.1,64,0.00,,,0.00,VWS V13.01,2013-04-19 07:06:00,
2013-04-19 00:11:00,51.1,39.3,30.42,NE,38,0.0,2.7,64,0.00,,,0.00,VWS V13.01,2013-04-19 07:11:00,
2013-04-19 00:16:00,51.1,39.3,30.42,NE,38,4.0,5.8,64,0.00,,,0.00,VWS V13.01,2013-04-19 07:16:00,
2013-04-19 00:21:00,51.3,39.9,30.42,NE,38,4.0,6.3,65,0.00,,,0.00,VWS V13.01,2013-04-19 07:21:00,
2013-04-19 00:26:00,51.3,39.9,30.42,NE,38,4.0,4.0,65,0.00,,,0.00,VWS V13.01,2013-04-19 07:26:00,
2013-04-19 00:31:00,51.3,40.3,30.42,NE,38,5.8,5.8,66,0.00,,,0.00,VWS V13.01,2013-04-19 07:31:00,
2013-04-19 00:36:00,51.1,40.5,30.42,NE,38,2.7,2.7,67,0.00,,,0.00,VWS V13.01,2013-04-19 07:36:00,
2013-04-19 00:41:00,51.1,40.9,30.42,NE,38,0.0,2.7,68,0.00,,,0.00,VWS V13.01,2013-04-19 07:41:00,
2013-04-19 00:46:00,51.3,41.1,30.42,NE,38,2.7,2.7,68,0.00,,,0.00,VWS V13.01,2013-04-19 07:46:00,
2013-04-19 00:51:00,51.3,41.5,30.42,NE,38,4.0,5.4,69,0.00,,,0.00,VWS V13.01,2013-04-19 07:51:00,
2013-04-19 00:56:00,51.1,41.7,30.42,NE,38,4.5,4.5,70,0.00,,,0.00,VWS V13.01,2013-04-19 07:56:00,
2013-04-19 01:01:00,51.1,42.0,30.42,NE,38,4.5,4.9,71,0.00,,,0.00,VWS V13.01,2013-04-19 08:01:00,
2013-04-19 01:06:00,51.1,42.0,30.39,NE,38,3.1,4.0,71,0.00,,,0.00,VWS V13.01,2013-04-19 08:06:00,
2013-04-19 01:11:00,51.1,42.4,30.39,NE,38,2.7,3.6,72,0.00,,,0.00,VWS V13.01,2013-04-19 08:11:00,
2013-04-19 01:16:00,51.1,42.4,30.39,NE,38,2.7,3.1,72,0.00,,,0.00,VWS V13.01,2013-04-19 08:16:00,
2013-04-19 01:21:00,51.1,42.7,30.39,NE,38,3.6,4.0,73,0.00,,,0.00,VWS V13.01,2013-04-19 08:21:00,
2013-04-19 01:26:00,51.1,42.7,30.39,NE,38,3.1,3.1,73,0.00,,,0.00,VWS V13.01,2013-04-19 08:26:00,
2013-04-19 01:30:00,50.9,42.9,30.39,NE,38,4.0,4.0,74,0.00,,,0.00,VWS V13.01,2013-04-19 08:30:00,
2013-04-19 01:36:00,50.9,43.3,30.39,NE,38,5.8,6.3,75,0.00,,,0.00,VWS V13.01,2013-04-19 08:36:00,
2013-04-19 01:40:00,50.9,43.3,30.39,West,281,5.4,8.7,75,0.00,,,0.00,VWS V13.01,2013-04-19 08:40:00,
2013-04-19 01:45:00,50.7,43.4,30.39,West,281,2.7,4.0,76,0.00,,,0.00,VWS V13.01,2013-04-19 08:45:00,
2013-04-19 01:50:00,50.7,43.8,30.39,West,281,3.6,4.0,77,0.00,,,0.00,VWS V13.01,2013-04-19 08:50:00,
2013-04-19 01:55:00,50.7,43.8,30.39,West,281,4.0,4.0,77,0.00,,,0.00,VWS V13.01,2013-04-19 08:55:00,
2013-04-19 02:00:00,50.5,43.6,30.39,West,281,3.6,3.6,77,0.00,,,0.00,VWS V13.01,2013-04-19 09:00:00,
2013-04-19 02:05:00,50.5,44.0,30.39,West,281,3.1,4.0,78,0.00,,,0.00,VWS V13.01,2013-04-19 09:05:00,
2013-04-19 02:10:00,50.5,44.0,30.39,West,281,2.7,2.7,78,0.00,,,0.00,VWS V13.01,2013-04-19 09:10:00,
2013-04-19 02:15:00,50.5,44.0,30.39,West,281,2.7,3.1,78,0.00,,,0.00,VWS V13.01,2013-04-19 09:15:00,
2013-04-19 02:20:00,50.5,44.3,30.39,West,281,4.9,6.3,79,0.00,,,0.00,VWS V13.01,2013-04-19 09:20:00,
2013-04-19 02:25:00,50.5,44.6,30.39,West,281,4.9,5.4,80,0.00,,,0.00,VWS V13.01,2013-04-19 09:25:00,
2013-04-19 02:30:00,50.5,44.6,30.39,West,281,3.1,3.1,80,0.00,,,0.00,VWS V13.01,2013-04-19 09:30:00,
2013-04-19 02:35:00,50.4,44.4,30.39,West,281,3.1,3.1,80,0.00,,,0.00,VWS V13.01,2013-04-19 09:35:00,
2013-04-19 02:40:00,50.5,44.9,30.39,West,281,3.1,3.6,81,0.00,,,0.00,VWS V13.01,2013-04-19 09:40:00,
2013-04-19 02:45:00,50.5,44.9,30.39,West,281,2.7,2.7,81,0.00,,,0.00,VWS V13.01,2013-04-19 09:45:00,
2013-04-19 02:50:00,50.4,44.8,30.36,West,281,2.2,3.1,81,0.00,,,0.00,VWS V13.01,2013-04-19 09:50:00,
2013-04-19 02:55:00,50.4,44.8,30.36,West,281,3.6,3.6,81,0.00,,,0.00,VWS V13.01,2013-04-19 09:55:00,
2013-04-19 03:00:00,50.4,44.8,30.36,West,281,3.6,3.6,81,0.00,,,0.00,VWS V13.01,2013-04-19 10:00:00,
2013-04-19 03:05:00,50.4,44.8,30.39,West,281,2.7,2.7,81,0.00,,,0.00,VWS V13.01,2013-04-19 10:05:00,
2013-04-19 03:10:00,50.4,44.8,30.39,West,281,2.2,2.7,81,0.00,,,0.00,VWS V13.01,2013-04-19 10:10:00,
2013-04-19 03:15:00,50.2,44.6,30.39,West,281,3.6,3.6,81,0.00,,,0.00,VWS V13.01,2013-04-19 10:15:00,
2013-04-19 03:20:00,50.2,44.6,30.36,West,281,0.0,0.0,81,0.00,,,0.00,VWS V13.01,2013-04-19 10:20:00,
2013-04-19 03:25:00,50.2,44.6,30.36,West,281,4.0,4.0,81,0.00,,,0.00,VWS V13.01,2013-04-19 10:25:00,
2013-04-19 03:30:00,50.2,44.6,30.36,West,281,0.0,0.0,81,0.00,,,0.00,VWS V13.01,2013-04-19 10:30:00,
2013-04-19 03:35:00,50.2,44.6,30.36,West,281,0.0,0.0,81,0.00,,,0.00,VWS V13.01,2013-04-19 10:35:00,
2013-04-19 03:40:00,50.2,44.9,30.36,West,281,2.2,2.2,82,0.00,,,0.00,VWS V13.01,2013-04-19 10:40:00,
2013-04-19 03:45:00,50.2,44.9,30.36,West,281,2.7,2.7,82,0.00,,,0.00,VWS V13.01,2013-04-19 10:45:00,
2013-04-19 03:50:00,50.2,44.9,30.36,West,281,2.7,2.7,82,0.00,,,0.00,VWS V13.01,2013-04-19 10:50:00,
2013-04-19 03:55:00,50.2,44.9,30.36,West,281,2.7,2.7,82,0.00,,,0.00,VWS V13.01,2013-04-19 10:55:00,
2013-04-19 04:00:00,50.2,44.9,30.36,West,281,3.1,3.1,82,0.00,,,0.00,VWS V13.01,2013-04-19 11:00:00,
2013-04-19 04:05:00,50.2,44.9,30.36,West,281,2.7,2.7,82,0.00,,,0.00,VWS V13.01,2013-04-19 11:05:00,
2013-04-19 04:10:00,50.2,44.9,30.36,West,281,2.2,3.1,82,0.00,,,0.00,VWS V13.01,2013-04-19 11:10:00,
2013-04-19 04:15:00,50.2,45.2,30.36,West,281,2.2,2.2,83,0.00,,,0.00,VWS V13.01,2013-04-19 11:15:00,
2013-04-19 04:20:00,50.2,45.2,30.36,West,281,0.0,0.0,83,0.00,,,0.00,VWS V13.01,2013-04-19 11:20:00,
2013-04-19 04:25:00,50.2,45.2,30.36,West,281,0.0,0.0,83,0.00,,,0.00,VWS V13.01,2013-04-19 11:25:00,
2013-04-19 04:30:00,50.2,45.2,30.36,West,281,0.0,0.0,83,0.00,,,0.00,VWS V13.01,2013-04-19 11:30:00,
2013-04-19 04:35:00,50.2,45.2,30.33,West,281,2.7,2.7,83,0.00,,,0.00,VWS V13.01,2013-04-19 11:35:00,
2013-04-19 04:40:00,50.2,45.2,30.33,West,281,4.0,4.0,83,0.00,,,0.00,VWS V13.01,2013-04-19 11:40:00,
2013-04-19 04:45:00,50.2,45.2,30.33,West,281,2.7,3.1,83,0.00,,,0.00,VWS V13.01,2013-04-19 11:45:00,
2013-04-19 04:50:00,50.2,45.2,30.33,West,281,0.0,0.0,83,0.00,,,0.00,VWS V13.01,2013-04-19 11:50:00,
2013-04-19 04:55:00,50.2,45.2,30.33,West,281,0.0,0.0,83,0.00,,,0.00,VWS V13.01,2013-04-19 11:55:00,
2013-04-19 05:00:00,50.2,45.5,30.33,West,281,0.0,0.0,84,0.00,,,0.00,VWS V13.01,2013-04-19 12:00:00,
2013-04-19 05:05:00,50.2,45.2,30.33,West,281,2.7,2.7,83,0.00,,,0.00,VWS V13.01,2013-04-19 12:05:00,
2013-04-19 05:10:00,50.2,45.2,30.33,West,281,3.1,4.9,83,0.00,,,0.00,VWS V13.01,2013-04-19 12:10:00,
2013-04-19 05:15:00,50.2,45.5,30.33,West,281,0.0,0.0,84,0.00,,,0.00,VWS V13.01,2013-04-19 12:15:00,
2013-04-19 05:20:00,50.2,45.5,30.30,West,281,2.7,3.1,84,0.00,,,0.00,VWS V13.01,2013-04-19 12:20:00,
2013-04-19 05:25:00,50.2,45.5,30.30,West,281,0.0,0.0,84,0.00,,,0.00,VWS V13.01,2013-04-19 12:25:00,
2013-04-19 05:30:00,50.2,45.5,30.30,West,281,0.0,0.0,84,0.00,,,0.00,VWS V13.01,2013-04-19 12:30:00,
2013-04-19 05:35:00,50.2,45.5,30.30,West,281,0.0,2.2,84,0.00,,,0.00,VWS V13.01,2013-04-19 12:35:00,
2013-04-19 05:40:00,50.2,45.5,30.30,West,281,0.0,0.0,84,0.00,,,0.00,VWS V13.01,2013-04-19 12:40:00,
2013-04-19 05:45:00,50.2,45.5,30.30,West,281,3.6,4.0,84,0.00,,,0.00,VWS V13.01,2013-04-19 12:45:00,
2013-04-19 05:50:00,50.2,45.5,30.30,West,281,0.0,2.7,84,0.00,,,0.00,VWS V13.01,2013-04-19 12:50:00,
2013-04-19 05:55:00,50.2,45.5,30.30,West,281,4.0,4.0,84,0.00,,,0.00,VWS V13.01,2013-04-19 12:55:00,
2013-04-19 06:00:00,50.2,45.5,30.30,West,280,3.6,3.6,84,0.00,,,0.00,VWS V13.01,2013-04-19 13:00:00,
2013-04-19 06:05:00,50.2,45.5,30.30,West,280,2.2,2.7,84,0.00,,,0.00,VWS V13.01,2013-04-19 13:05:00,
2013-04-19 06:10:00,50.2,45.5,30.30,West,280,2.7,3.1,84,0.00,,,0.00,VWS V13.01,2013-04-19 13:10:00,
2013-04-19 06:15:00,50.2,45.5,30.30,West,280,2.2,3.1,84,0.00,,,0.00,VWS V13.01,2013-04-19 13:15:00,
2013-04-19 06:20:00,50.2,45.5,30.30,West,280,4.0,4.0,84,0.00,,,0.00,VWS V13.01,2013-04-19 13:20:00,
2013-04-19 06:25:00,50.0,45.4,30.30,West,280,3.1,3.1,84,0.00,,,0.00,VWS V13.01,2013-04-19 13:25:00,
2013-04-19 06:30:00,50.0,45.7,30.30,West,280,3.6,3.6,85,0.00,,,0.00,VWS V13.01,2013-04-19 13:30:00,
2013-04-19 06:35:00,50.0,45.7,30.30,West,279,3.6,3.6,85,0.00,,,0.00,VWS V13.01,2013-04-19 13:35:00,
2013-04-19 06:40:00,50.0,45.7,30.30,West,279,4.9,4.9,85,0.00,,,0.00,VWS V13.01,2013-04-19 13:40:00,
2013-04-19 06:45:00,50.0,45.7,30.30,West,279,4.9,4.9,85,0.00,,,0.00,VWS V13.01,2013-04-19 13:45:00,
2013-04-19 06:50:00,50.0,45.7,30.27,SSW,213,6.3,6.3,85,0.00,,,0.00,VWS V13.01,2013-04-19 13:50:00,
2013-04-19 06:55:00,50.0,45.7,30.27,SSW,213,4.9,4.9,85,0.00,,,0.00,VWS V13.01,2013-04-19 13:55:00,
2013-04-19 07:00:00,50.0,46.0,30.27,SSW,213,5.4,5.4,86,0.00,,,0.00,VWS V13.01,2013-04-19 14:00:00,
2013-04-19 07:05:00,50.0,46.0,30.27,SSW,213,4.0,4.0,86,0.00,,,0.00,VWS V13.01,2013-04-19 14:05:00,
2013-04-19 07:10:00,50.0,46.0,30.27,SSW,213,2.7,3.6,86,0.00,,,0.00,VWS V13.01,2013-04-19 14:10:00,
2013-04-19 07:15:00,50.0,46.0,30.27,SSW,213,3.6,3.6,86,0.00,,,0.00,VWS V13.01,2013-04-19 14:15:00,
2013-04-19 07:20:00,50.0,46.0,30.30,SSW,213,8.7,8.7,86,0.00,,,0.00,VWS V13.01,2013-04-19 14:20:00,
2013-04-19 07:25:00,50.0,46.0,30.30,SSW,213,5.8,5.8,86,0.00,,,0.00,VWS V13.01,2013-04-19 14:25:00,
2013-04-19 07:30:00,50.0,46.3,30.30,SSW,213,3.1,3.1,87,0.00,,,0.00,VWS V13.01,2013-04-19 14:30:00,
2013-04-19 07:35:00,50.0,46.3,30.30,SW,225,5.8,6.3,87,0.00,,,0.00,VWS V13.01,2013-04-19 14:35:00,
2013-04-19 07:40:00,50.0,46.3,30.30,WSW,248,5.8,5.8,87,0.00,,,0.00,VWS V13.01,2013-04-19 14:40:00,
2013-04-19 07:45:00,50.0,46.3,30.30,West,281,4.9,4.9,87,0.00,,,0.00,VWS V13.01,2013-04-19 14:45:00,
2013-04-19 07:50:00,50.0,46.6,30.30,WNW,293,5.8,8.1,88,0.00,,,0.00,VWS V13.01,2013-04-19 14:50:00,
2013-04-19 07:55:00,50.0,46.6,30.30,WNW,293,5.4,5.4,88,0.00,,,0.00,VWS V13.01,2013-04-19 14:55:00,
2013-04-19 08:00:00,50.2,47.1,30.30,WNW,295,4.9,4.9,89,0.00,,,0.00,VWS V13.01,2013-04-19 15:00:00,
2013-04-19 08:05:00,50.2,47.1,30.30,NW,305,3.6,8.1,89,0.00,,,0.00,VWS V13.01,2013-04-19 15:05:00,
2013-04-19 08:10:00,50.2,47.1,30.30,NW,311,8.1,8.1,89,0.00,,,0.00,VWS V13.01,2013-04-19 15:10:00,
2013-04-19 08:15:00,50.2,47.4,30.30,NW,308,5.8,8.1,90,0.00,,,0.00,VWS V13.01,2013-04-19 15:15:00,
2013-04-19 08:20:00,50.2,47.4,30.30,West,260,8.3,8.3,90,0.00,,,0.00,VWS V13.01,2013-04-19 15:20:00,
2013-04-19 08:25:00,50.2,47.4,30.30,NW,319,5.8,5.8,90,0.00,,,0.00,VWS V13.01,2013-04-19 15:25:00,
2013-04-19 08:30:00,50.4,47.8,30.30,WNW,299,5.4,5.8,91,0.00,,,0.00,VWS V13.01,2013-04-19 15:30:00,
2013-04-19 08:35:00,50.5,48.0,30.30,West,268,5.4,5.4,91,0.00,,,0.00,VWS V13.01,2013-04-19 15:35:00,
2013-04-19 08:40:00,50.5,48.3,30.30,WNW,292,7.6,7.6,92,0.00,,,0.00,VWS V13.01,2013-04-19 15:40:00,
2013-04-19 08:45:00,50.5,48.3,30.30,WNW,288,4.0,10.5,92,0.00,,,0.00,VWS V13.01,2013-04-19 15:45:00,
2013-04-19 08:50:00,50.7,48.8,30.30,NW,313,10.1,10.1,93,0.00,,,0.00,VWS V13.01,2013-04-19 15:50:00,
2013-04-19 08:55:00,50.7,48.8,30.30,NW,307,8.3,10.5,93,0.00,,,0.00,VWS V13.01,2013-04-19 15:55:00,
2013-04-19 09:00:00,50.9,49.0,30.30,West,278,11.0,11.0,93,0.00,,,0.00,VWS V13.01,2013-04-19 16:00:00,
2013-04-19 09:05:00,51.1,49.4,30.30,WNW,290,4.0,8.7,94,0.00,,,0.00,VWS V13.01,2013-04-19 16:05:00,
2013-04-19 09:10:00,51.1,49.4,30.30,WNW,299,7.6,8.7,94,0.00,,,0.00,VWS V13.01,2013-04-19 16:10:00,
2013-04-19 09:15:00,51.3,49.9,30.30,WNW,295,4.0,4.0,95,0.00,,,0.00,VWS V13.01,2013-04-19 16:15:00,
2013-04-19 09:20:00,51.3,49.9,30.30,West,281,3.1,5.8,95,0.00,,,0.00,VWS V13.01,2013-04-19 16:20:00,
2013-04-19 09:25:00,51.4,50.1,30.30,WNW,289,8.1,8.3,95,0.00,,,0.00,VWS V13.01,2013-04-19 16:25:00,
2013-04-19 09:30:00,51.4,50.1,30.30,WNW,283,10.5,10.5,95,0.00,,,0.00,VWS V13.01,2013-04-19 16:30:00,
2013-04-19 09:35:00,51.8,50.4,30.30,WNW,297,11.0,11.0,95,0.00,,,0.00,VWS V13.01,2013-04-19 16:35:00,
2013-04-19 09:40:00,51.8,50.4,30.30,WNW,295,10.5,10.5,95,0.00,,,0.00,VWS V13.01,2013-04-19 16:40:00,
2013-04-19 09:45:00,51.8,50.4,30.30,WNW,290,7.6,7.6,95,0.00,,,0.00,VWS V13.01,2013-04-19 16:45:00,
2013-04-19 09:50:00,51.8,50.4,30.27,WNW,292,3.6,8.7,95,0.00,,,0.00,VWS V13.01,2013-04-19 16:50:00,
2013-04-19 09:55:00,52.0,50.6,30.27,WNW,283,11.0,11.0,95,0.00,,,0.00,VWS V13.01,2013-04-19 16:55:00,
2013-04-19 10:00:00,52.0,50.6,30.27,NW,307,7.6,9.2,95,0.00,,,0.00,VWS V13.01,2013-04-19 17:00:00,
2013-04-19 10:05:00,52.2,50.8,30.30,WNW,302,5.4,5.8,95,0.00,,,0.00,VWS V13.01,2013-04-19 17:05:00,
2013-04-19 10:10:00,52.0,50.6,30.30,NW,320,5.4,12.8,95,0.00,,,0.00,VWS V13.01,2013-04-19 17:10:00,
2013-04-19 10:15:00,52.0,50.6,30.30,WNW,288,10.5,12.3,95,0.00,,,0.00,VWS V13.01,2013-04-19 17:15:00,
2013-04-19 10:20:00,52.2,50.8,30.30,West,275,7.6,8.1,95,0.00,,,0.00,VWS V13.01,2013-04-19 17:20:00,
2013-04-19 10:25:00,52.3,51.2,30.30,WNW,292,8.3,8.3,96,0.00,,,0.00,VWS V13.01,2013-04-19 17:25:00,
2013-04-19 10:30:00,52.3,51.2,30.30,NW,314,4.9,8.7,96,0.00,,,0.00,VWS V13.01,2013-04-19 17:30:00,
2013-04-19 10:35:00,52.3,51.2,30.30,West,280,5.4,5.8,96,0.00,,,0.00,VWS V13.01,2013-04-19 17:35:00,
2013-04-19 10:40:00,52.5,51.4,30.30,WNW,296,8.1,8.1,96,0.00,,,0.00,VWS V13.01,2013-04-19 17:40:00,
2013-04-19 10:45:00,52.5,51.4,30.30,WNW,301,8.7,11.0,96,0.00,,,0.00,VWS V13.01,2013-04-19 17:45:00,
2013-04-19 10:50:00,52.5,51.4,30.30,WNW,295,8.7,11.0,96,0.00,,,0.00,VWS V13.01,2013-04-19 17:50:00,
2013-04-19 10:55:00,52.7,51.6,30.30,WNW,284,6.3,7.6,96,0.00,,,0.00,VWS V13.01,2013-04-19 17:55:00,
2013-04-19 11:00:00,52.7,51.6,30.30,NW,309,12.8,12.8,96,0.00,,,0.00,VWS V13.01,2013-04-19 18:00:00,
2013-04-19 11:05:00,52.7,51.6,30.30,WNW,294,8.1,8.7,96,0.00,,,0.00,VWS V13.01,2013-04-19 18:05:00,
2013-04-19 11:10:00,52.7,51.6,30.30,WNW,300,5.4,8.3,96,0.00,,,0.00,VWS V13.01,2013-04-19 18:10:00,
2013-04-19 11:15:00,52.7,51.6,30.30,NW,313,7.2,10.1,96,0.00,,,0.00,VWS V13.01,2013-04-19 18:15:00,
2013-04-19 11:20:00,52.7,51.6,30.30,WNW,300,8.1,11.0,96,0.00,,,0.00,VWS V13.01,2013-04-19 18:20:00,
2013-04-19 11:25:00,52.7,51.6,30.30,WNW,299,6.3,10.1,96,0.00,,,0.00,VWS V13.01,2013-04-19 18:25:00,
2013-04-19 11:30:00,52.7,51.6,30.30,NNW,335,5.4,8.3,96,0.00,,,0.00,VWS V13.01,2013-04-19 18:30:00,
2013-04-19 11:35:00,52.7,51.6,30.33,NW,310,11.0,11.0,96,0.00,,,0.00,VWS V13.01,2013-04-19 18:35:00,
2013-04-19 11:40:00,52.7,51.6,30.33,WNW,290,8.3,11.0,96,0.00,,,0.00,VWS V13.01,2013-04-19 18:40:00,
2013-04-19 11:45:00,52.5,51.4,30.33,WNW,301,7.2,8.1,96,0.00,,,0.00,VWS V13.01,2013-04-19 18:45:00,
2013-04-19 11:50:00,52.5,51.4,30.33,WNW,299,6.3,10.1,96,0.00,,,0.00,VWS V13.01,2013-04-19 18:50:00,
2013-04-19 11:55:00,52.5,51.1,30.33,NW,307,5.8,5.8,95,0.00,,,0.00,VWS V13.01,2013-04-19 18:55:00,
2013-04-19 12:00:00,52.7,51.3,30.33,NW,315,7.6,7.6,95,0.00,,,0.00,VWS V13.01,2013-04-19 19:00:00,
2013-04-19 12:05:00,52.5,51.1,30.33,North,353,7.6,9.6,95,0.00,,,0.00,VWS V13.01,2013-04-19 19:05:00,
2013-04-19 12:10:00,52.5,51.1,30.33,WNW,291,3.6,7.6,95,0.00,,,0.00,VWS V13.01,2013-04-19 19:10:00,
2013-04-19 12:15:00,52.5,50.8,30.33,NW,306,5.8,11.0,94,0.00,,,0.00,VWS V13.01,2013-04-19 19:15:00,
2013-04-19 12:20:00,52.5,50.8,30.33,NW,311,8.3,8.3,94,0.00,,,0.00,VWS V13.01,2013-04-19 19:20:00,
2013-04-19 12:25:00,52.3,50.4,30.33,NW,308,4.0,6.3,93,0.00,,,0.00,VWS V13.01,2013-04-19 19:25:00,
2013-04-19 12:30:00,52.7,50.7,30.33,WNW,285,5.8,6.3,93,0.00,,,0.00,VWS V13.01,2013-04-19 19:30:00,
2013-04-19 12:35:00,52.7,50.7,30.33,WNW,286,5.8,5.8,93,0.00,,,0.00,VWS V13.01,2013-04-19 19:35:00,
2013-04-19 12:40:00,52.7,50.7,30.33,WNW,293,7.6,7.6,93,0.00,,,0.00,VWS V13.01,2013-04-19 19:40:00,
2013-04-19 12:45:00,52.3,49.8,30.33,North,0,11.0,11.0,91,0.00,,,0.00,VWS V13.01,2013-04-19 19:45:00,
2013-04-19 12:50:00,52.3,49.5,30.33,NW,314,6.3,7.6,90,0.00,,,0.00,VWS V13.01,2013-04-19 19:50:00,
2013-04-19 12:55:00,52.5,49.7,30.33,NNW,332,5.4,5.4,90,0.00,,,0.00,VWS V13.01,2013-04-19 19:55:00,
2013-04-19 13:00:00,52.3,49.5,30.33,North,2,5.4,10.1,90,0.00,,,0.00,VWS V13.01,2013-04-19 20:00:00,
2013-04-19 13:05:00,52.5,49.7,30.33,NW,310,7.6,8.1,90,0.00,,,0.00,VWS V13.01,2013-04-19 20:05:00,
2013-04-19 13:10:00,52.5,49.7,30.33,NNW,330,5.4,5.8,90,0.00,,,0.00,VWS V13.01,2013-04-19 20:10:00,
2013-04-19 13:15:00,52.5,49.4,30.33,WNW,299,6.3,6.3,89,0.00,,,0.00,VWS V13.01,2013-04-19 20:15:00,
2013-04-19 13:20:00,52.2,48.4,30.36,NW,318,8.3,8.7,87,0.00,,,0.00,VWS V13.01,2013-04-19 20:20:00,
2013-04-19 13:24:00,52.2,48.1,30.36,NNE,16,3.6,4.0,86,0.00,,,0.00,VWS V13.01,2013-04-19 20:24:00,
2013-04-19 13:29:00,52.2,47.8,30.36,North,357,3.1,5.8,85,0.00,,,0.00,VWS V13.01,2013-04-19 20:29:00,
2013-04-19 13:34:00,52.3,48.0,30.36,WNW,292,4.0,5.4,85,0.00,,,0.00,VWS V13.01,2013-04-19 20:34:00,
2013-04-19 13:39:00,52.3,48.0,30.36,WNW,292,3.6,4.0,85,0.00,,,0.00,VWS V13.01,2013-04-19 20:39:00,
2013-04-19 13:44:00,52.3,47.7,30.36,NNE,19,4.0,7.6,84,0.00,,,0.00,VWS V13.01,2013-04-19 20:44:00,
2013-04-19 13:49:00,52.5,47.5,30.36,North,357,10.5,10.5,83,0.00,,,0.00,VWS V13.01,2013-04-19 20:49:00,
2013-04-19 13:54:00,52.3,46.7,30.36,North,2,4.0,5.8,81,0.00,,,0.00,VWS V13.01,2013-04-19 20:54:00,
2013-04-19 13:59:00,52.0,45.7,30.36,NNE,26,4.0,8.7,79,0.00,,,0.00,VWS V13.01,2013-04-19 20:59:00,
2013-04-19 14:04:00,52.0,44.7,30.36,North,9,2.7,3.6,76,0.00,,,0.00,VWS V13.01,2013-04-19 21:04:00,
2013-04-19 14:09:00,52.2,44.5,30.36,NNE,26,2.7,3.1,75,0.00,,,0.00,VWS V13.01,2013-04-19 21:09:00,
2013-04-19 14:14:00,52.0,43.6,30.36,North,3,2.7,5.8,73,0.00,,,0.00,VWS V13.01,2013-04-19 21:14:00,
2013-04-19 14:19:00,52.5,44.5,30.36,North,3,2.7,3.6,74,0.00,,,0.00,VWS V13.01,2013-04-19 21:19:00,
2013-04-19 14:24:00,52.5,44.1,30.36,North,3,3.1,3.1,73,0.00,,,0.00,VWS V13.01,2013-04-19 21:24:00,
2013-04-19 14:29:00,52.7,44.7,30.36,North,3,7.6,7.6,74,0.00,,,0.00,VWS V13.01,2013-04-19 21:29:00,
2013-04-19 14:34:00,52.5,43.4,30.36,NNE,23,8.7,8.7,71,0.00,,,0.00,VWS V13.01,2013-04-19 21:34:00,
2013-04-19 14:39:00,52.5,43.4,30.36,North,8,6.7,6.7,71,0.00,,,0.00,VWS V13.01,2013-04-19 21:39:00,
2013-04-19 14:44:00,53.1,44.3,30.36,North,8,4.9,4.9,72,0.00,,,0.00,VWS V13.01,2013-04-19 21:44:00,
2013-04-19 14:49:00,53.4,45.0,30.36,North,8,2.2,3.6,73,0.00,,,0.00,VWS V13.01,2013-04-19 21:49:00,
2013-04-19 14:54:00,53.6,44.8,30.36,North,8,6.3,7.2,72,0.00,,,0.00,VWS V13.01,2013-04-19 21:54:00,
2013-04-19 14:59:00,53.4,43.1,30.36,North,8,4.0,4.0,68,0.00,,,0.00,VWS V13.01,2013-04-19 21:59:00,
2013-04-19 15:04:00,53.6,42.9,30.36,North,8,2.7,4.0,67,0.00,,,0.00,VWS V13.01,2013-04-19 22:04:00,
2013-04-19 15:09:00,53.1,40.0,30.36,NNE,14,6.3,6.3,61,0.00,,,0.00,VWS V13.01,2013-04-19 22:09:00,
2013-04-19 15:14:00,53.4,40.7,30.36,NW,319,5.4,6.3,62,0.00,,,0.00,VWS V13.01,2013-04-19 22:14:00,
2013-04-19 15:19:00,53.2,39.7,30.36,NNW,330,7.2,7.2,60,0.00,,,0.00,VWS V13.01,2013-04-19 22:19:00,
2013-04-19 15:24:00,53.1,39.1,30.36,North,0,3.6,4.9,59,0.00,,,0.00,VWS V13.01,2013-04-19 22:24:00,
2013-04-19 15:29:00,52.9,39.4,30.36,North,357,4.0,6.3,60,0.00,,,0.00,VWS V13.01,2013-04-19 22:29:00,
2013-04-19 15:34:00,52.7,39.6,30.36,NW,321,7.6,8.1,61,0.00,,,0.00,VWS V13.01,2013-04-19 22:34:00,
2013-04-19 15:39:00,52.7,40.5,30.36,NW,321,5.8,5.8,63,0.00,,,0.00,VWS V13.01,2013-04-19 22:39:00,
2013-04-19 15:44:00,52.9,41.0,30.36,NW,321,4.0,4.0,64,0.00,,,0.00,VWS V13.01,2013-04-19 22:44:00,
2013-04-19 15:49:00,53.1,41.6,30.36,NNE,16,5.8,6.3,65,0.00,,,0.00,VWS V13.01,2013-04-19 22:49:00,
2013-04-19 15:54:00,52.9,39.4,30.36,NNE,16,5.4,5.8,60,0.00,,,0.00,VWS V13.01,2013-04-19 22:54:00,
2013-04-19 15:59:00,53.1,39.1,30.36,NNE,16,6.3,6.3,59,0.00,,,0.00,VWS V13.01,2013-04-19 22:59:00,
2013-04-19 16:04:00,53.2,39.3,30.36,NNE,16,4.0,6.3,59,0.00,,,0.00,VWS V13.01,2013-04-19 23:04:00,
2013-04-19 16:09:00,52.9,37.6,30.36,NNE,16,8.7,8.7,56,0.00,,,0.00,VWS V13.01,2013-04-19 23:09:00,
2013-04-19 16:14:00,53.4,38.1,30.36,North,353,6.7,6.7,56,0.00,,,0.00,VWS V13.01,2013-04-19 23:14:00,
2013-04-19 16:19:00,53.6,37.8,30.36,NNW,340,5.4,5.4,55,0.00,,,0.00,VWS V13.01,2013-04-19 23:19:00,
2013-04-19 16:24:00,53.8,37.1,30.36,NNW,340,2.7,3.1,53,0.00,,,0.00,VWS V13.01,2013-04-19 23:24:00,
2013-04-19 16:29:00,54.0,36.8,30.36,NNW,339,4.0,5.8,52,0.00,,,0.00,VWS V13.01,2013-04-19 23:29:00,
2013-04-19 16:34:00,54.3,37.1,30.36,WNW,289,4.0,5.4,52,0.00,,,0.00,VWS V13.01,2013-04-19 23:34:00,
2013-04-19 16:39:00,54.3,36.1,30.36,WNW,289,3.6,5.8,50,0.00,,,0.00,VWS V13.01,2013-04-19 23:39:00,
2013-04-19 16:44:00,54.5,36.3,30.36,WNW,289,4.9,4.9,50,0.00,,,0.00,VWS V13.01,2013-04-19 23:44:00,
2013-04-19 16:49:00,54.3,36.1,30.36,WNW,289,4.9,4.9,50,0.00,,,0.00,VWS V13.01,2013-04-19 23:49:00,
2013-04-19 16:54:00,54.1,35.4,30.36,WNW,289,6.3,7.6,49,0.00,,,0.00,VWS V13.01,2013-04-19 23:54:00,
2013-04-19 16:59:00,54.7,36.4,30.36,WNW,289,2.7,4.5,50,0.00,,,0.00,VWS V13.01,2013-04-19 23:59:00,
2013-04-19 17:04:00,54.9,36.1,30.36,WNW,289,2.7,3.1,49,0.00,,,0.00,VWS V13.01,2013-04-20 00:04:00,
2013-04-19 17:09:00,54.3,34.5,30.36,WNW,289,4.0,4.0,47,0.00,,,0.00,VWS V13.01,2013-04-20 00:09:00,
2013-04-19 17:14:00,54.3,35.1,30.36,WNW,289,4.0,4.5,48,0.00,,,0.00,VWS V13.01,2013-04-20 00:14:00,
2013-04-19 17:19:00,54.1,34.4,30.36,WNW,289,2.2,2.7,47,0.00,,,0.00,VWS V13.01,2013-04-20 00:19:00,
2013-04-19 17:24:00,54.5,35.2,30.36,WNW,289,4.9,5.8,48,0.00,,,0.00,VWS V13.01,2013-04-20 00:24:00,
2013-04-19 17:29:00,54.3,35.1,30.36,WNW,289,5.8,6.3,48,0.00,,,0.00,VWS V13.01,2013-04-20 00:29:00,
2013-04-19 17:34:00,54.5,35.2,30.36,WNW,289,3.1,5.4,48,0.00,,,0.00,VWS V13.01,2013-04-20 00:34:00,
2013-04-19 17:39:00,54.0,34.7,30.36,WNW,289,4.0,4.9,48,0.00,,,0.00,VWS V13.01,2013-04-20 00:39:00,
2013-04-19 17:44:00,53.4,34.8,30.36,WNW,289,4.9,4.9,49,0.00,,,0.00,VWS V13.01,2013-04-20 00:44:00,
2013-04-19 17:49:00,53.4,35.8,30.36,WNW,289,4.0,5.8,51,0.00,,,0.00,VWS V13.01,2013-04-20 00:49:00,
2013-04-19 17:54:00,52.7,36.1,30.36,North,11,7.6,7.6,53,0.00,,,0.00,VWS V13.01,2013-04-20 00:54:00,
2013-04-19 17:59:00,52.3,36.2,30.36,North,11,4.0,4.9,54,0.00,,,0.00,VWS V13.01,2013-04-20 00:59:00,
2013-04-19 18:04:00,52.2,37.0,30.36,North,11,0.0,2.2,56,0.00,,,0.00,VWS V13.01,2013-04-20 01:04:00,
2013-04-19 18:09:00,52.5,38.2,30.36,North,11,0.0,0.0,58,0.00,,,0.00,VWS V13.01,2013-04-20 01:09:00,
2013-04-19 18:14:00,52.5,38.2,30.36,North,11,3.1,4.0,58,0.00,,,0.00,VWS V13.01,2013-04-20 01:14:00,
2013-04-19 18:19:00,52.7,38.3,30.36,North,11,3.1,4.0,58,0.00,,,0.00,VWS V13.01,2013-04-20 01:19:00,
2013-04-19 18:24:00,52.5,37.7,30.36,North,11,4.0,5.8,57,0.00,,,0.00,VWS V13.01,2013-04-20 01:24:00,
2013-04-19 18:29:00,52.2,37.0,30.36,North,11,3.6,3.6,56,0.00,,,0.00,VWS V13.01,2013-04-20 01:29:00,
2013-04-19 18:34:00,52.3,38.0,30.36,North,11,3.1,3.1,58,0.00,,,0.00,VWS V13.01,2013-04-20 01:34:00,
2013-04-19 18:39:00,52.3,38.0,30.36,North,11,3.1,4.0,58,0.00,,,0.00,VWS V13.01,2013-04-20 01:39:00,
2013-04-19 18:44:00,52.2,37.4,30.36,North,11,0.0,2.7,57,0.00,,,0.00,VWS V13.01,2013-04-20 01:44:00,
2013-04-19 18:49:00,52.2,37.8,30.36,North,11,2.2,3.1,58,0.00,,,0.00,VWS V13.01,2013-04-20 01:49:00,
2013-04-19 18:54:00,52.2,38.3,30.36,North,11,3.6,3.6,59,0.00,,,0.00,VWS V13.01,2013-04-20 01:54:00,
2013-04-19 18:59:00,52.0,38.1,30.36,North,11,2.7,2.7,59,0.00,,,0.00,VWS V13.01,2013-04-20 01:59:00,
2013-04-19 19:04:00,52.0,38.5,30.36,North,11,4.9,5.4,60,0.00,,,0.00,VWS V13.01,2013-04-20 02:04:00,
2013-04-19 19:09:00,51.6,38.2,30.36,North,11,4.0,4.0,60,0.00,,,0.00,VWS V13.01,2013-04-20 02:09:00,
2013-04-19 19:14:00,51.6,38.2,30.36,North,11,4.0,5.8,60,0.00,,,0.00,VWS V13.01,2013-04-20 02:14:00,
2013-04-19 19:19:00,51.4,38.0,30.36,North,11,3.1,3.1,60,0.00,,,0.00,VWS V13.01,2013-04-20 02:19:00,
2013-04-19 19:24:00,51.4,38.9,30.36,North,11,0.0,0.0,62,0.00,,,0.00,VWS V13.01,2013-04-20 02:24:00,
2013-04-19 19:29:00,51.4,39.3,30.36,North,11,3.1,3.1,63,0.00,,,0.00,VWS V13.01,2013-04-20 02:29:00,
2013-04-19 19:34:00,51.3,39.1,30.36,North,11,0.0,0.0,63,0.00,,,0.00,VWS V13.01,2013-04-20 02:34:00,
2013-04-19 19:39:00,51.3,39.5,30.36,North,11,3.1,3.6,64,0.00,,,0.00,VWS V13.01,2013-04-20 02:39:00,
2013-04-19 19:44:00,51.3,39.9,30.36,North,11,2.7,3.1,65,0.00,,,0.00,VWS V13.01,2013-04-20 02:44:00,
2013-04-19 19:49:00,51.1,39.7,30.36,North,11,0.0,0.0,65,0.00,,,0.00,VWS V13.01,2013-04-20 02:49:00,
2013-04-19 19:54:00,51.1,40.1,30.36,North,11,0.0,0.0,66,0.00,,,0.00,VWS V13.01,2013-04-20 02:54:00,
2013-04-19 19:59:00,51.1,40.1,30.36,North,11,0.0,0.0,66,0.00,,,0.00,VWS V13.01,2013-04-20 02:59:00,
2013-04-19 20:04:00,51.1,40.1,30.36,North,11,0.0,0.0,66,0.00,,,0.00,VWS V13.01,2013-04-20 03:04:00,
2013-04-19 20:09:00,51.1,40.1,30.36,North,11,2.7,2.7,66,0.00,,,0.00,VWS V13.01,2013-04-20 03:09:00,
2013-04-19 20:14:00,51.1,40.5,30.36,North,11,0.0,0.0,67,0.00,,,0.00,VWS V13.01,2013-04-20 03:14:00,
2013-04-19 20:19:00,51.1,40.5,30.36,North,11,0.0,0.0,67,0.00,,,0.00,VWS V13.01,2013-04-20 03:19:00,
2013-04-19 20:24:00,51.1,40.5,30.36,North,11,0.0,0.0,67,0.00,,,0.00,VWS V13.01,2013-04-20 03:24:00,
2013-04-19 20:29:00,50.9,40.3,30.36,North,11,0.0,0.0,67,0.00,,,0.00,VWS V13.01,2013-04-20 03:29:00,
2013-04-19 20:34:00,51.1,40.9,30.36,North,11,2.2,2.7,68,0.00,,,0.00,VWS V13.01,2013-04-20 03:34:00,
2013-04-19 20:39:00,51.1,40.9,30.36,North,11,2.7,2.7,68,0.00,,,0.00,VWS V13.01,2013-04-20 03:39:00,
2013-04-19 20:44:00,50.9,40.7,30.36,North,11,2.7,2.7,68,0.00,,,0.00,VWS V13.01,2013-04-20 03:44:00,
2013-04-19 20:49:00,50.9,41.1,30.36,North,11,3.1,3.1,69,0.00,,,0.00,VWS V13.01,2013-04-20 03:49:00,
2013-04-19 20:54:00,50.9,41.1,30.36,North,11,2.7,3.1,69,0.00,,,0.00,VWS V13.01,2013-04-20 03:54:00,
2013-04-19 20:59:00,50.9,41.5,30.36,North,11,3.6,3.6,70,0.00,,,0.00,VWS V13.01,2013-04-20 03:59:00,
2013-04-19 21:01:00,50.7,41.3,30.36,North,11,2.2,3.6,70,0.00,,,0.00,VWS V13.01,2013-04-20 04:01:00,
2013-04-19 21:06:00,50.7,41.3,30.36,North,11,0.0,0.0,70,0.00,,,0.00,VWS V13.01,2013-04-20 04:06:00,
2013-04-19 21:11:00,50.7,41.3,30.36,North,11,0.0,0.0,70,0.00,,,0.00,VWS V13.01,2013-04-20 04:11:00,
2013-04-19 21:16:00,50.7,41.7,30.36,North,11,2.7,3.6,71,0.00,,,0.00,VWS V13.01,2013-04-20 04:16:00,
2013-04-19 21:21:00,50.7,41.7,30.36,North,11,4.0,4.0,71,0.00,,,0.00,VWS V13.01,2013-04-20 04:21:00,
2013-04-19 21:26:00,50.5,41.9,30.36,North,11,2.2,2.2,72,0.00,,,0.00,VWS V13.01,2013-04-20 04:26:00,
2013-04-19 21:31:00,50.5,42.2,30.36,North,11,2.7,3.1,73,0.00,,,0.00,VWS V13.01,2013-04-20 04:31:00,
2013-04-19 21:36:00,50.5,42.2,30.36,North,11,4.5,5.4,73,0.00,,,0.00,VWS V13.01,2013-04-20 04:36:00,
2013-04-19 21:41:00,50.5,42.2,30.36,North,11,0.0,4.0,73,0.00,,,0.00,VWS V13.01,2013-04-20 04:41:00,
2013-04-19 21:46:00,50.5,42.6,30.36,North,11,3.1,4.0,74,0.00,,,0.00,VWS V13.01,2013-04-20 04:46:00,
2013-04-19 21:51:00,50.5,42.9,30.36,North,11,5.4,5.4,75,0.00,,,0.00,VWS V13.01,2013-04-20 04:51:00,
2013-04-19 21:56:00,50.4,42.8,30.36,North,11,2.7,4.0,75,0.00,,,0.00,VWS V13.01,2013-04-20 04:56:00,
2013-04-19 22:01:00,50.5,42.9,30.36,North,11,3.1,4.0,75,0.00,,,0.00,VWS V13.01,2013-04-20 05:01:00,
2013-04-19 22:06:00,50.5,43.3,30.36,North,11,4.9,5.8,76,0.00,,,0.00,VWS V13.01,2013-04-20 05:06:00,
2013-04-19 22:11:00,50.4,43.1,30.36,North,11,4.0,4.0,76,0.00,,,0.00,VWS V13.01,2013-04-20 05:11:00,
2013-04-19 22:16:00,50.5,43.3,30.36,North,11,6.3,6.3,76,0.00,,,0.00,VWS V13.01,2013-04-20 05:16:00,
2013-04-19 22:21:00,50.5,44.0,30.36,North,11,3.1,3.1,78,0.00,,,0.00,VWS V13.01,2013-04-20 05:21:00,
2013-04-19 22:26:00,50.5,44.9,30.36,North,11,5.8,6.7,81,0.00,,,0.00,VWS V13.01,2013-04-20 05:26:00,
2013-04-19 22:31:00,50.4,44.8,30.36,North,11,3.6,4.9,81,0.00,,,0.00,VWS V13.01,2013-04-20 05:31:00,
2013-04-19 22:36:00,50.4,45.1,30.36,North,11,4.0,5.4,82,0.00,,,0.00,VWS V13.01,2013-04-20 05:36:00,
2013-04-19 22:41:00,50.2,45.2,30.36,North,11,3.1,4.9,83,0.00,,,0.00,VWS V13.01,2013-04-20 05:41:00,
2013-04-19 22:46:00,50.2,45.2,30.36,North,11,3.6,4.5,83,0.00,,,0.00,VWS V13.01,2013-04-20 05:46:00,
2013-04-19 22:51:00,50.0,45.4,30.36,North,11,0.0,0.0,84,0.00,,,0.00,VWS V13.01,2013-04-20 05:51:00,
2013-04-19 22:56:00,50.0,45.4,30.36,North,11,0.0,0.0,84,0.00,,,0.00,VWS V13.01,2013-04-20 05:56:00,
2013-04-19 23:01:00,50.0,45.7,30.36,North,11,0.0,3.6,85,0.00,,,0.00,VWS V13.01,2013-04-20 06:01:00,
2013-04-19 23:06:00,50.0,45.7,30.39,North,11,0.0,2.7,85,0.00,,,0.00,VWS V13.01,2013-04-20 06:06:00,
2013-04-19 23:11:00,50.2,45.8,30.39,North,11,0.0,0.0,85,0.00,,,0.00,VWS V13.01,2013-04-20 06:11:00,
2013-04-19 23:16:00,50.2,45.8,30.39,North,11,2.7,3.1,85,0.00,,,0.00,VWS V13.01,2013-04-20 06:16:00,
2013-04-19 23:21:00,50.0,46.0,30.36,North,11,0.0,0.0,86,0.00,,,0.00,VWS V13.01,2013-04-20 06:21:00,
2013-04-19 23:26:00,50.0,45.7,30.36,North,11,0.0,0.0,85,0.00,,,0.00,VWS V13.01,2013-04-20 06:26:00,
2013-04-19 23:31:00,50.2,46.2,30.36,North,11,0.0,2.2,86,0.00,,,0.00,VWS V13.01,2013-04-20 06:31:00,
2013-04-19 23:36:00,50.2,45.8,30.36,North,11,0.0,4.0,85,0.00,,,0.00,VWS V13.01,2013-04-20 06:36:00,
2013-04-19 23:41:00,50.2,45.8,30.36,North,11,3.6,3.6,85,0.00,,,0.00,VWS V13.01,2013-04-20 06:41:00,
2013-04-19 23:46:00,50.2,45.8,30.36,North,11,4.9,4.9,85,0.00,,,0.00,VWS V13.01,2013-04-20 06:46:00,
2013-04-19 23:51:00,50.0,45.7,30.36,North,11,2.7,5.4,85,0.00,,,0.00,VWS V13.01,2013-04-20 06:51:00,
2013-04-19 23:56:00,50.0,45.7,30.36,North,11,3.6,6.3,85,0.00,,,0.00,VWS V13.01,2013-04-20 06:56:00,